Location: Saint-Denis
(20.8800°S, 55.4481°E)
Time: 01:07:39
(UTC+04:00)

deb Transtage 4 - Visible Passes

Search period start: 22 February 2024 00:00
Search period end: 03 March 2024 00:00
Orbit: 604 x 643 km, 32.3° (Epoch: 20 February)

Date Brightness Start Highest point End Pass type
(mag) Time Alt. Az. Time Alt. Az. Time Alt. Az.
27 Feb ? 05:34:02 10° N 05:36:53 16° NE 05:39:45 10° ENE visible
28 Feb ? 05:50:24 10° NNW 05:54:30 34° NNE 05:58:39 10° E visible
29 Feb ? 04:28:30 12° NNE 04:29:34 13° NE 04:31:45 10° ENE visible
01 Mar ? 04:45:37 23° N 04:47:10 28° NNE 04:51:03 10° E visible
02 Mar ? 05:02:40 29° NW 05:04:48 59° NNE 05:09:17 10° ESE visible
